[[{"header":{"parameterUnit":"m.s-1","parameterCategory":1,"la1":30.2991,"la2":30.254,"lo1":-89.0895,"lo2":-89.0444,"dy":0.0017,"dx":0.0017,"nx":28,"ny":28,"refTime":"2025-01-06T03:00:00:Z","depth":0,"parameterNumber":2,"parameterNumberName":"U-component_of_WINDS"},"data":[0,0,0,0,0,0,0,0,0,0,0,0,0,0,0,0,0,0,0,0,0,0,0,0,0,0,0,0,0,0,0,0,0,0,0,0,0,0,0,0,0,0,0,0,0,0,0,0,0,0,0,0,0,0,0,0,0,0,1.54,1.54,0,1.5412,1.5412,1.5412,1.5365,1.5363,1.5362,1.536,1.5375,1.5377,1.5378,0,0,0,0,0,0,0,0,0,0,0,0,0,1.5338,1.5339,1.54,1.54,1.54,1.5412,1.5412,1.5412,1.5365,1.5363,1.5361,1.536,1.5375,1.5377,1.5379,0,0,0,0,0,0,0,0,0,0,0,0,0,1.5359,1.534,1.54,1.5378,1.5376,1.5412,1.5412,1.5412,1.5365,1.5363,1.5361,1.5359,1.5374,1.5376,1.5379,1.5437,0,0,1.5387,1.5388,0,0,0,0,0,0,0,0,1.5358,1.5361,1.5381,1.5379,1.5377,1.5384,1.5396,1.5421,1.5366,1.5369,1.536,1.5358,1.538,1.5382,1.5389,1.5438,1.5439,1.5387,1.5389,1.539,1.539,0,0,0,0,0,0,0,1.5357,1.5361,1.5405,1.5381,1.5379,1.5368,1.5369,1.54,1.5387,1.5369,1.5365,1.5367,1.5379,1.5387,1.5389,1.5439,1.5387,1.5389,1.5391,1.5392,1.5537,1.5539,0,0,0,0,0,0,1.5358,1.536,1.5404,1.5405,1.5362,1.5371,1.5372,1.5384,1.5386,1.5384,1.5369,1.5365,1.5383,1.5386,1.5389,1.5458,1.539,1.5392,1.5393,1.5534,1.5537,1.554,0,0,0,0,0,0,1.5357,1.5362,1.5404,1.5381,1.5386,1.5374,1.5389,1.5386,1.5394,1.5386,1.5384,1.538,1.5382,1.5386,1.5426,1.5458,1.5393,1.5395,1.5532,1.5535,1.5538,1.5596,0,0,0,0,0,0,1.5355,1.5362,1.5383,1.5382,1.5387,1.5439,1.5391,1.5388,1.5398,1.5393,1.5395,1.5394,1.538,1.5422,1.5428,1.546,1.5397,1.5529,1.5533,1.5537,1.5591,1.5601,1.561,0,0,0,0,0,1.5353,1.54,1.5385,1.539,1.5414,1.5441,1.5444,1.5427,1.5401,1.5423,1.5418,1.5394,1.5453,1.5427,1.5433,1.5467,1.5527,1.5532,1.5537,1.5587,1.5599,1.5609,0,0,0,0,0,0,1.5406,1.5399,1.5383,1.543,1.5437,1.5433,1.546,1.544,1.5455,1.545,1.5428,1.5429,1.5473,1.5474,1.5444,1.5523,1.5485,1.5492,1.5521,1.5533,1.5542,1.5541,1.54,0,0,0,0,0,1.5423,1.5445,1.5438,1.5481,1.5485,1.5472,1.5484,1.547,1.5476,1.5479,1.5477,1.5484,1.5505,1.5519,1.5537,1.5591,1.5591,1.5617,1.5626,1.5634,1.564,1.5669,1.5681,1.5557,1.5557,1.5557,0,0,1.5459,1.5458,1.5473,1.5492,1.5495,1.5519,1.5475,1.5502,1.552,1.5483,1.552,1.552,1.5526,1.5574,1.5595,1.5576,1.5674,1.564,1.5646,1.5649,1.5676,1.5688,1.5698,1.556,1.556,1.5559,0,0,1.5536,1.5537,1.5573,1.5577,1.5583,1.5574,1.5583,1.5583,1.558,1.5617,1.559,1.5611,1.5647,1.5653,1.5661,1.5741,1.572,1.5748,1.5796,1.5824,1.5834,1.5843,1.5872,1.5882,1.5754,1.5754,1.5754,0,1.558,1.5615,1.5595,1.5624,1.5633,1.56,1.5636,1.5642,1.5653,1.5661,1.5639,1.5683,1.5685,1.5734,1.5753,1.576,1.577,1.5747,1.5834,1.5842,1.585,1.5878,1.5889,1.5757,1.5757,1.5756,1.5756,0,1.5669,1.5694,1.5722,1.5733,1.5746,1.5779,1.5764,1.5779,1.5764,1.5758,1.5797,1.5798,1.5817,1.5827,1.5813,1.5874,1.5862,1.5837,1.5799,1.5866,1.5891,1.5902,1.5762,1.5761,1.576,1.5759,0,0,1.578,1.578,1.5791,1.5796,1.5799,1.5818,1.585,1.5867,1.5881,1.589,1.5917,1.5947,1.5925,1.5934,1.592,1.5945,1.6009,1.5918,1.5918,1.5935,1.6077,1.6096,1.6109,1.5995,1.5997,1.5998,1.6077,0,1.5857,1.5911,1.5893,1.5948,1.5971,1.5939,1.5967,1.5973,1.5968,1.5987,1.5982,1.6004,1.5972,1.5978,1.6001,1.5997,1.6038,1.5991,1.602,1.6022,1.602,1.6122,1.6142,1.6216,1.6087,1.6088,1.609,0,1.5953,1.5966,1.6023,1.6023,1.6032,1.6057,1.6072,1.609,1.6096,1.6091,1.6101,1.6082,1.6114,1.6075,1.6119,1.6087,1.6098,1.6098,1.61,1.6103,1.606,1.6128,1.6239,1.625,1.6105,1.6104,1.6103,0,1.603,1.6061,1.6099,1.6104,1.6105,1.6124,1.6125,1.6129,1.614,1.6153,1.6161,1.6177,1.6187,1.62,1.6187,1.616,1.6233,1.6193,1.623,1.6231,1.6248,1.6247,1.6363,1.6254,1.6254,1.6254,1.6253,0,1.6117,1.6154,1.6133,1.6157,1.6197,1.6177,1.6217,1.6215,1.6219,1.6242,1.6215,1.6238,1.6218,1.6239,1.6229,1.6267,1.6271,1.6268,1.6265,1.6271,1.6272,1.6279,1.6273,1.6256,1.6256,1.6255,1.6255,0,1.621,1.6197,1.6237,1.6234,1.6235,1.6264,1.6262,1.6285,1.6278,1.6307,1.6313,1.6303,1.6326,1.6313,1.6337,1.633,1.638,1.637,1.6378,1.6376,1.6414,1.6411,1.6538,1.6554,1.6435,1.6436,1.6437,0,1.6267,1.6294,1.6294,1.6307,1.631,1.6332,1.6344,1.6325,1.6339,1.6348,1.6369,1.639,1.6405,1.6444,1.6439,1.6457,1.6447,1.6491,1.645,1.6455,1.6449,1.6447,1.645,1.6499,1.6501,1.6502,1.6503,0,1.6369,1.6362,1.6379,1.6395,1.6409,1.6421,1.643,1.6443,1.6425,1.6441,1.6464,1.6476,1.65,1.6522,1.6537,1.6539,1.6519,1.6516,1.6525,1.6532,1.6536,1.6535,1.6401,1.6513,1.6512,1.6511,1.6511,1.651,1.6446,1.6468,1.6472,1.6493,1.6498,1.6507,1.6528,1.6524,1.6542,1.656,1.6549,1.6576,1.6582,1.6601,1.6605,1.6627,1.661,1.6624,1.6627,1.6631,1.6636,1.6532,1.663,1.6629,1.6629,1.6629,1.6629,0,1.6547,1.6548,1.6567,1.6581,1.6597,1.6576,1.6585,1.66,1.6625,1.6631,1.6647,1.6674,1.6695,1.6691,1.671,1.6728,1.6719,1.6733,1.6732,1.6733,1.6651,1.6641,1.674,1.674,1.674,1.674,1.674,1.674,1.6602,1.6639,1.6633,1.6673,1.6674,1.67,1.6707,1.6716,1.6721,1.6752,1.6769,1.6767,1.6769,1.6788,1.6806,1.6805,1.6813,1.6831,1.6826,1.675,1.6739,1.6728,1.6719,1.6833,1.6833,1.6907,1.6908,1.6908]},{"header":{"parameterUnit":"m.s-1","parameterCategory":1,"la1":30.2991,"la2":30.254,"lo1":-89.0895,"lo2":-89.0444,"dy":0.0017,"dx":0.0017,"nx":28,"ny":28,"refTime":"2025-01-06T03:00:00:Z","depth":0,"parameterNumber":3,"parameterNumberName":"V-component_of_WINDS"},"data":[0,0,0,0,0,0,0,0,0,0,0,0,0,0,0,0,0,0,0,0,0,0,0,0,0,0,0,0,0,0,0,0,0,0,0,0,0,0,0,0,0,0,0,0,0,0,0,0,0,0,0,0,0,0,0,0,0,0,6.1252,6.1254,0,6.1361,6.1363,6.1364,6.1336,6.1334,6.1332,6.133,6.1443,6.1448,6.1453,0,0,0,0,0,0,0,0,0,0,0,0,0,6.1023,6.1028,6.1252,6.1254,6.1255,6.1361,6.1363,6.1364,6.1337,6.1334,6.1331,6.1329,6.1442,6.1448,6.1454,0,0,0,0,0,0,0,0,0,0,0,0,0,6.1127,6.1029,6.1252,6.1254,6.1255,6.1361,6.1363,6.1364,6.1337,6.1334,6.1331,6.1328,6.144,6.1447,6.1455,6.1565,0,0,6.1478,6.1481,0,0,0,0,0,0,0,0,6.1121,6.1135,6.1252,6.1254,6.1256,6.1332,6.1323,6.1432,6.1338,6.1306,6.133,6.1326,6.1409,6.1419,6.1446,6.1571,6.1576,6.1478,6.1483,6.1486,6.1488,0,0,0,0,0,0,0,6.1114,6.113,6.1295,6.1254,6.1256,6.125,6.1262,6.1344,6.1374,6.1309,6.1307,6.132,6.1409,6.1439,6.1449,6.1577,6.1478,6.1485,6.1489,6.1492,6.1801,6.1804,0,0,0,0,0,0,6.1105,6.1125,6.1292,6.1299,6.1179,6.1257,6.127,6.1311,6.1373,6.138,6.1323,6.1318,6.1428,6.144,6.1453,6.1589,6.1486,6.1493,6.1497,6.1797,6.1801,6.1805,0,0,0,0,0,0,6.11,6.112,6.1288,6.1211,6.1232,6.1265,6.1311,6.1314,6.1344,6.1384,6.1389,6.1348,6.1426,6.1442,6.1538,6.1592,6.1497,6.1503,6.1793,6.1798,6.1803,6.186,0,0,0,0,0,0,6.1094,6.1119,6.116,6.1212,6.1236,6.137,6.1314,6.1319,6.1357,6.1353,6.1409,6.1415,6.1425,6.1527,6.1546,6.1601,6.1509,6.1788,6.1795,6.1802,6.1854,6.1867,6.1878,0,0,0,0,0,6.1086,6.1172,6.1162,6.1183,6.1289,6.1373,6.1387,6.1396,6.1362,6.1405,6.143,6.1413,6.1583,6.1537,6.1558,6.1616,6.1785,6.1793,6.1801,6.1848,6.1864,6.1878,0,0,0,0,0,0,6.1126,6.1179,6.1169,6.1274,6.132,6.1369,6.1423,6.1413,6.1469,6.1463,6.1472,6.1485,6.1583,6.1609,6.1557,6.1728,6.1679,6.1692,6.1708,6.1723,6.1735,6.1728,6.1516,0,0,0,0,0,6.1146,6.121,6.1253,6.1342,6.1365,6.139,6.1427,6.143,6.1478,6.1497,6.153,6.1577,6.1641,6.1683,6.1744,6.1857,6.187,6.1907,6.1919,6.1929,6.1941,6.2005,6.2022,6.1832,6.1832,6.1832,0,0,6.1191,6.1228,6.1267,6.1351,6.1386,6.1453,6.1407,6.1479,6.1529,6.1508,6.1601,6.1627,6.168,6.1786,6.1834,6.181,6.1996,6.194,6.1948,6.1954,6.2015,6.2033,6.2049,6.1838,6.1837,6.1836,0,0,6.1306,6.1339,6.1418,6.1455,6.1509,6.1525,6.1544,6.1595,6.1612,6.1705,6.1691,6.1751,6.1861,6.1901,6.1935,6.2067,6.2054,6.2086,6.2151,6.2213,6.2228,6.2242,6.2291,6.2308,6.2097,6.2097,6.2097,0,6.1354,6.1454,6.146,6.1534,6.1573,6.1556,6.1637,6.1673,6.1744,6.1772,6.1744,6.1883,6.1918,6.2033,6.2065,6.2093,6.2116,6.2081,6.2225,6.2239,6.2251,6.2298,6.2317,6.2101,6.21,6.21,6.21,0,6.1512,6.1581,6.1638,6.1708,6.1753,6.183,6.1849,6.1893,6.1893,6.1912,6.2009,6.205,6.212,6.2147,6.2147,6.2263,6.2247,6.2223,6.2174,6.2273,6.2318,6.2336,6.2106,6.2105,6.2104,6.2103,0,0,6.1656,6.1729,6.175,6.1782,6.1841,6.1896,6.1972,6.2041,6.208,6.213,6.2196,6.229,6.2268,6.2307,6.2311,6.2365,6.247,6.2334,6.2335,6.236,6.2603,6.2623,6.2644,6.2461,6.2464,6.2467,6.2599,0,6.1778,6.1913,6.1922,6.2045,6.211,6.2096,6.2164,6.2208,6.2229,6.2288,6.231,6.2378,6.2342,6.2366,6.2419,6.2446,6.2519,6.2436,6.2524,6.2527,6.2513,6.2666,6.2687,6.281,6.2616,6.2619,6.2621,0,6.1938,6.1994,6.2123,6.2175,6.2203,6.2263,6.2328,6.2384,6.2434,6.2446,6.249,6.2487,6.2567,6.2515,6.2627,6.2571,6.2607,6.2626,6.2631,6.2641,6.2582,6.2683,6.2849,6.2869,6.2648,6.2646,6.2644,0,6.2033,6.214,6.2232,6.226,6.2322,6.2365,6.2393,6.244,6.2481,6.2538,6.2565,6.263,6.2666,6.2717,6.2732,6.2692,6.2845,6.2793,6.2858,6.2858,6.2893,6.2891,6.307,6.2913,6.2912,6.2912,6.2912,0,6.217,6.225,6.2276,6.2333,6.2423,6.2432,6.2522,6.2547,6.259,6.2652,6.2644,6.2703,6.2718,6.278,6.2793,6.2885,6.2901,6.2914,6.2916,6.2916,6.2915,6.2941,6.2934,6.2917,6.2916,6.2915,6.2914,0,6.2292,6.2312,6.2411,6.2462,6.2477,6.2541,6.2585,6.2641,6.266,6.2739,6.2759,6.279,6.2863,6.2882,6.2969,6.2978,6.3088,6.3081,6.3071,6.3071,6.3137,6.3131,6.3341,6.337,6.3192,6.3193,6.3195,0,6.2379,6.244,6.2498,6.2539,6.2569,6.2635,6.2677,6.2689,6.2734,6.2797,6.2845,6.2917,6.2975,6.3093,6.3124,6.3191,6.3188,6.3257,6.3198,6.3196,6.3192,6.3189,6.3196,6.3268,6.327,6.3272,6.3273,0,6.2532,6.2539,6.2599,6.2665,6.2715,6.2767,6.2817,6.2851,6.287,6.2921,6.2995,6.3041,6.313,6.3203,6.3271,6.3301,6.3292,6.3291,6.331,6.3311,6.3304,6.3311,6.3104,6.3287,6.3285,6.3284,6.3284,6.3283,6.264,6.2695,6.2745,6.2814,6.2852,6.2899,6.2955,6.2981,6.3043,6.3117,6.312,6.3202,6.3253,6.3343,6.3377,6.3442,6.3421,6.3448,6.3456,6.3463,6.347,6.3292,6.3454,6.3454,6.3453,6.3453,6.3453,0,6.2795,6.2826,6.2889,6.2959,6.3014,6.2999,6.3054,6.3101,6.3173,6.322,6.3278,6.3365,6.3435,6.3472,6.3542,6.3587,6.3585,6.3605,6.3603,6.3611,6.3483,6.346,6.3606,6.3606,6.3606,6.3606,6.3606,6.3606,6.2882,6.2975,6.2988,6.3101,6.3132,6.3212,6.3245,6.3289,6.3327,6.3424,6.3483,6.3506,6.355,6.3624,6.3688,6.3697,6.3724,6.3748,6.3755,6.3635,6.362,6.3605,6.3584,6.3753,6.3754,6.3878,6.3879,6.388]}]]